Location: Bacharowice
(49.9333°N, 19.5833°E)
Time: 12:19:06
(UTC+00:00)

Cosmos 1536 - Visible Passes

Search period start: 20 September 2021 00:00
Search period end: 30 September 2021 00:00
Orbit: 539 x 558 km, 82.5° (Epoch: 19 September)

Date Brightness Start Highest point End Pass type
(mag) Time Alt. Az. Time Alt. Az. Time Alt. Az.
20 Sep 4.9 02:48:29 10° N 02:52:03 30° ENE 02:55:34 10° SE visible
21 Sep 4.7 02:43:44 10° N 02:47:21 32° ENE 02:50:56 10° SE visible
22 Sep 4.6 02:38:59 10° N 02:42:40 34° ENE 02:46:18 10° SE visible
23 Sep 4.4 02:34:14 10° N 02:37:58 37° ENE 02:41:40 10° SE visible
24 Sep 4.2 02:29:29 10° N 02:33:16 39° ENE 02:37:01 10° SE visible
25 Sep 4.0 02:24:45 10° N 02:28:35 42° ENE 02:32:22 10° SSE visible
25 Sep 4.2 04:01:53 10° NW 04:04:40 19° W 04:07:27 10° SW visible
26 Sep 3.9 02:20:02 10° N 02:23:52 46° ENE 02:27:42 10° SSE visible
26 Sep 4.3 03:57:16 10° NW 03:59:56 17° W 04:02:34 10° SW visible
27 Sep 3.7 02:15:17 10° N 02:19:10 49° ENE 02:23:02 10° SSE visible
27 Sep 4.3 03:52:40 10° NW 03:55:11 16° W 03:57:40 10° SW visible
28 Sep 3.5 02:10:34 10° N 02:14:29 53° ENE 02:18:22 10° SSE visible
28 Sep 4.4 03:48:07 10° NW 03:50:26 15° W 03:52:46 10° WSW visible
29 Sep 3.3 02:05:50 10° N 02:09:46 58° ENE 02:11:50 26° SSE visible
29 Sep 4.5 03:43:33 10° NW 03:45:41 14° W 03:47:20 11° WSW visible
